N114HF KMRH-KFFA

Flight info

Callsign N114HF
Flight time 0h 46m
Altitude 2500
Route VFR ON THE COASTLINE
Aircraft BE36/L-VGD/C

Departure

Time 2026-05-07 23:58
Airport Michael J. Smith Field (KMRH)

Arrival

Time 2026-05-08 00:44
Airport First Flight Airport (KFFA)
Time Latitude Longitude Altitude Speed Heading
2026-05-07 23:54 34.73437 -76.65542 7 ft 0 kts 81°
2026-05-07 23:56 34.73455 -76.65526 7 ft 12 kts
2026-05-07 23:56 34.73611 -76.65528 7 ft 28 kts 357°
2026-05-07 23:56 34.73727 -76.65394 7 ft 23 kts 70°
2026-05-07 23:56 34.73811 -76.65391 7 ft 20 kts 269°
2026-05-07 23:57 34.73703 -76.65735 7 ft 67 kts 248°
2026-05-07 23:57 34.73516 -76.66329 118 ft 78 kts 249°
2026-05-07 23:57 34.73308 -76.66969 319 ft 82 kts 251°
2026-05-07 23:57 34.73114 -76.67615 539 ft 83 kts 252°
2026-05-07 23:58 34.72920 -76.68009 690 ft 88 kts 223°
2026-05-07 23:58 34.72253 -76.68072 801 ft 109 kts 156°
2026-05-07 23:58 34.71289 -76.67555 1052 ft 114 kts 159°
2026-05-07 23:58 34.70750 -76.67296 1055 ft 130 kts 160°
2026-05-07 23:59 34.69536 -76.66640 1058 ft 155 kts 146°
2026-05-07 23:59 34.68926 -76.66113 1056 ft 164 kts 145°
2026-05-07 23:59 34.68140 -76.64903 1804 ft 122 kts 113°
2026-05-07 23:59 34.67747 -76.63995 2024 ft 122 kts 112°
2026-05-08 00:00 34.67371 -76.63055 2242 ft 122 kts 113°
2026-05-08 00:00 34.67117 -76.62388 2222 ft 139 kts 113°
2026-05-08 00:00 34.66689 -76.61249 2219 ft 157 kts 112°
2026-05-08 00:00 34.66221 -76.59982 2210 ft 171 kts 113°
2026-05-08 00:01 34.65719 -76.58614 2203 ft 180 kts 112°
2026-05-08 00:01 34.65013 -76.56716 2209 ft 187 kts 113°
2026-05-08 00:01 34.64481 -76.55260 2203 ft 191 kts 112°
2026-05-08 00:01 34.64242 -76.53685 2219 ft 189 kts 83°
2026-05-08 00:02 34.64294 -76.52103 2201 ft 186 kts 83°
2026-05-08 00:02 34.64503 -76.51104 2193 ft 179 kts 55°
2026-05-08 00:02 34.65657 -76.49787 2200 ft 169 kts 31°
2026-05-08 00:02 34.66600 -76.48910 2200 ft 169 kts 30°
2026-05-08 00:03 34.67216 -76.48328 2200 ft 169 kts 30°
2026-05-08 00:03 34.68463 -76.47141 2200 ft 169 kts 31°
2026-05-08 00:03 34.69387 -76.46265 2202 ft 169 kts 30°
2026-05-08 00:03 34.70332 -76.45364 2202 ft 170 kts 30°
2026-05-08 00:04 34.71264 -76.44486 2202 ft 170 kts 30°
2026-05-08 00:04 34.71895 -76.43886 2200 ft 170 kts 31°
2026-05-08 00:04 34.73145 -76.42716 2209 ft 170 kts 30°
2026-05-08 00:04 34.74101 -76.41856 2202 ft 168 kts 26°
2026-05-08 00:05 34.75087 -76.41090 2206 ft 168 kts 25°
2026-05-08 00:05 34.75742 -76.40578 2200 ft 168 kts 26°
2026-05-08 00:05 34.77072 -76.39539 2201 ft 168 kts 26°
2026-05-08 00:05 34.78050 -76.38769 2200 ft 168 kts 25°
2026-05-08 00:06 34.78717 -76.38244 2204 ft 168 kts 25°
2026-05-08 00:06 34.79699 -76.37483 2202 ft 168 kts 26°
2026-05-08 00:06 34.81022 -76.36478 2201 ft 167 kts 25°
2026-05-08 00:06 34.82021 -76.35722 2189 ft 168 kts 26°
2026-05-08 00:07 34.83004 -76.34970 2193 ft 167 kts 26°
2026-05-08 00:07 34.83999 -76.34213 2173 ft 167 kts 26°
2026-05-08 00:07 34.84528 -76.33656 2721 ft 77 kts 189°
2026-05-08 00:07 34.84692 -76.33346 2442 ft 77 kts 276°
2026-05-08 00:08 34.84383 -76.33443 2354 ft 121 kts 123°
2026-05-08 00:08 34.84787 -76.33093 1855 ft 135 kts 275°
2026-05-08 00:08 34.84125 -76.33794 1741 ft 168 kts 175°
2026-05-08 00:08 34.84094 -76.32642 961 ft 189 kts 27°
2026-05-08 00:09 34.85129 -76.31850 1001 ft 175 kts 40°
2026-05-08 00:09 34.85268 -76.31689 981 ft 176 kts 43°
2026-05-08 00:09 34.85788 -76.30933 1261 ft 157 kts 49°
2026-05-08 00:09 34.86616 -76.29607 1676 ft 140 kts 50°
2026-05-08 00:10 34.86997 -76.28947 1745 ft 143 kts 54°
2026-05-08 00:10 34.87786 -76.27815 2099 ft 131 kts 35°
2026-05-08 00:10 34.88260 -76.27251 2071 ft 144 kts 40°
2026-05-08 00:10 34.88939 -76.26295 2106 ft 154 kts 43°
2026-05-08 00:11 34.89922 -76.24923 2094 ft 165 kts 43°
2026-05-08 00:11 34.90427 -76.24227 2092 ft 166 kts 43°
2026-05-08 00:11 34.91463 -76.22807 2092 ft 166 kts 43°
2026-05-08 00:11 34.91975 -76.22100 2088 ft 167 kts 43°
2026-05-08 00:12 34.92752 -76.21027 2087 ft 167 kts 43°
2026-05-08 00:12 34.93787 -76.19614 2091 ft 167 kts 43°
2026-05-08 00:12 34.94557 -76.18555 2091 ft 167 kts 43°
2026-05-08 00:12 34.95078 -76.17837 2093 ft 167 kts 43°
2026-05-08 00:13 34.96114 -76.16411 2092 ft 168 kts 43°
2026-05-08 00:13 34.96631 -76.15699 2093 ft 168 kts 43°
2026-05-08 00:13 34.97407 -76.14639 2088 ft 168 kts 43°
2026-05-08 00:13 34.98442 -76.13206 2089 ft 168 kts 43°
2026-05-08 00:14 34.98962 -76.12492 2091 ft 168 kts 43°
2026-05-08 00:14 35.00001 -76.11073 2086 ft 168 kts 43°
2026-05-08 00:14 35.00526 -76.10348 2092 ft 167 kts 43°
2026-05-08 00:14 35.01357 -76.09377 2082 ft 162 kts 22°
2026-05-08 00:15 35.02766 -76.08785 2093 ft 160 kts 14°
2026-05-08 00:15 35.03471 -76.08474 2090 ft 160 kts 14°
2026-05-08 00:15 35.04514 -76.08015 2090 ft 160 kts 14°
2026-05-08 00:15 35.05570 -76.07559 2092 ft 160 kts 13°
2026-05-08 00:16 35.06626 -76.07109 2091 ft 160 kts 14°
2026-05-08 00:16 35.07675 -76.06667 2090 ft 160 kts 13°
2026-05-08 00:16 35.09091 -76.06073 2088 ft 160 kts 13°
2026-05-08 00:16 35.09802 -76.05776 2089 ft 160 kts 13°
2026-05-08 00:17 35.10861 -76.05334 2091 ft 160 kts 13°
2026-05-08 00:17 35.11917 -76.04894 2091 ft 160 kts 13°
2026-05-08 00:17 35.12979 -76.04452 2091 ft 160 kts 13°
2026-05-08 00:17 35.14044 -76.04009 2089 ft 160 kts 13°
2026-05-08 00:18 35.15097 -76.03571 2091 ft 160 kts 13°
2026-05-08 00:18 35.16155 -76.03131 2090 ft 160 kts 13°
2026-05-08 00:18 35.17211 -76.02692 2090 ft 160 kts 13°
2026-05-08 00:18 35.18272 -76.02251 2090 ft 160 kts 13°
2026-05-08 00:19 35.19332 -76.01810 2092 ft 160 kts 13°
2026-05-08 00:19 35.20392 -76.01369 2091 ft 160 kts 13°
2026-05-08 00:19 35.21465 -76.00946 2082 ft 160 kts 10°
2026-05-08 00:19 35.22897 -76.00538 2098 ft 158 kts
2026-05-08 00:20 35.23611 -76.00299 2071 ft 161 kts 11°
2026-05-08 00:20 35.24677 -75.99859 2097 ft 159 kts 14°
2026-05-08 00:20 35.25723 -75.99383 2085 ft 160 kts 14°
2026-05-08 00:20 35.26777 -75.98910 2079 ft 161 kts 14°
2026-05-08 00:21 35.27835 -75.98445 2091 ft 160 kts 13°
2026-05-08 00:21 35.28894 -75.97987 2084 ft 160 kts 13°
2026-05-08 00:21 35.29946 -75.97537 2100 ft 159 kts 13°
2026-05-08 00:21 35.31001 -75.97089 2081 ft 160 kts 13°
2026-05-08 00:22 35.32062 -75.96641 2089 ft 160 kts 13°
2026-05-08 00:22 35.33117 -75.96195 2098 ft 160 kts 13°
2026-05-08 00:22 35.34174 -75.95751 2080 ft 161 kts 13°
2026-05-08 00:22 35.35583 -75.95158 2104 ft 159 kts 13°
2026-05-08 00:23 35.36290 -75.94861 2093 ft 160 kts 13°
2026-05-08 00:23 35.37352 -75.94415 2081 ft 161 kts 13°
2026-05-08 00:23 35.38775 -75.93817 2100 ft 160 kts 12°
2026-05-08 00:23 35.39467 -75.93527 2101 ft 160 kts 13°
2026-05-08 00:24 35.40527 -75.93081 2098 ft 160 kts 12°
2026-05-08 00:24 35.41586 -75.92636 2104 ft 160 kts 12°
2026-05-08 00:24 35.42649 -75.92190 2103 ft 160 kts 13°
2026-05-08 00:24 35.43708 -75.91744 2108 ft 160 kts 12°
2026-05-08 00:25 35.44758 -75.91303 2116 ft 159 kts 13°
2026-05-08 00:25 35.45810 -75.90861 2111 ft 160 kts 13°
2026-05-08 00:25 35.47239 -75.90260 2108 ft 160 kts 12°
2026-05-08 00:25 35.47942 -75.89963 2127 ft 159 kts 13°
2026-05-08 00:26 35.48987 -75.89523 2116 ft 160 kts 13°
2026-05-08 00:26 35.50051 -75.89075 2114 ft 160 kts 13°
2026-05-08 00:26 35.51469 -75.88477 2124 ft 160 kts 13°
2026-05-08 00:26 35.52163 -75.88185 2128 ft 160 kts 13°
2026-05-08 00:27 35.53227 -75.87737 2123 ft 160 kts 13°
2026-05-08 00:27 35.54289 -75.87290 2125 ft 160 kts 13°
2026-05-08 00:27 35.55353 -75.86843 2129 ft 160 kts 13°
2026-05-08 00:27 35.56407 -75.86399 2115 ft 161 kts 13°
2026-05-08 00:28 35.57481 -75.85946 2139 ft 159 kts 12°
2026-05-08 00:28 35.57706 -75.85851 2142 ft 159 kts 13°
2026-05-08 00:28 35.58643 -75.85454 2361 ft 144 kts 14°
2026-05-08 00:28 35.59283 -75.85184 2302 ft 149 kts 14°
2026-05-08 00:29 35.60280 -75.84764 2300 ft 149 kts 14°
2026-05-08 00:29 35.61264 -75.84349 2294 ft 150 kts 14°
2026-05-08 00:29 35.62262 -75.83927 2296 ft 150 kts 14°
2026-05-08 00:29 35.63249 -75.83511 2295 ft 150 kts 14°
2026-05-08 00:30 35.64248 -75.83089 2294 ft 150 kts 14°
2026-05-08 00:30 35.65238 -75.82670 2293 ft 150 kts 14°
2026-05-08 00:30 35.66233 -75.82249 2298 ft 150 kts 14°
2026-05-08 00:30 35.67222 -75.81831 2296 ft 150 kts 14°
2026-05-08 00:31 35.68214 -75.81411 2295 ft 150 kts 14°
2026-05-08 00:31 35.69211 -75.80989 2292 ft 150 kts 14°
2026-05-08 00:31 35.70200 -75.80570 2293 ft 150 kts 14°
2026-05-08 00:31 35.71188 -75.80152 2294 ft 150 kts 14°
2026-05-08 00:32 35.72194 -75.79726 2295 ft 150 kts 14°
2026-05-08 00:32 35.73178 -75.79309 2292 ft 150 kts 14°
2026-05-08 00:32 35.74182 -75.78883 2293 ft 150 kts 14°
2026-05-08 00:32 35.75170 -75.78464 2292 ft 150 kts 14°
2026-05-08 00:33 35.76159 -75.78046 2291 ft 150 kts 14°
2026-05-08 00:33 35.77026 -75.77325 2280 ft 159 kts 49°
2026-05-08 00:33 35.77588 -75.76141 2296 ft 159 kts 53°
2026-05-08 00:33 35.78139 -75.74938 2292 ft 160 kts 53°
2026-05-08 00:34 35.78691 -75.73745 2294 ft 160 kts 53°
2026-05-08 00:34 35.79250 -75.72559 2296 ft 160 kts 53°
2026-05-08 00:34 35.79802 -75.71358 2294 ft 160 kts 53°
2026-05-08 00:34 35.80353 -75.70168 2297 ft 160 kts 53°
2026-05-08 00:35 35.80911 -75.68977 2294 ft 160 kts 53°
2026-05-08 00:35 35.81467 -75.67794 2294 ft 160 kts 53°
2026-05-08 00:35 35.82031 -75.66589 2295 ft 160 kts 53°
2026-05-08 00:35 35.82587 -75.65402 2293 ft 160 kts 53°
2026-05-08 00:36 35.83144 -75.64211 2295 ft 160 kts 52°
2026-05-08 00:36 35.83909 -75.63278 2291 ft 152 kts 25°
2026-05-08 00:36 35.84848 -75.62693 2296 ft 151 kts 21°
2026-05-08 00:36 35.85798 -75.62113 2296 ft 151 kts 21°
2026-05-08 00:37 35.86744 -75.61540 2292 ft 150 kts 17°
2026-05-08 00:37 35.87768 -75.61346 2292 ft 147 kts
2026-05-08 00:37 35.88792 -75.61237 2290 ft 147 kts 354°
2026-05-08 00:38 35.90792 -75.61687 2297 ft 146 kts 347°
2026-05-08 00:38 35.91797 -75.61924 2294 ft 146 kts 347°
2026-05-08 00:38 35.92796 -75.62162 2295 ft 146 kts 347°
2026-05-08 00:38 35.93783 -75.62522 2294 ft 146 kts 341°
2026-05-08 00:39 35.94738 -75.62968 2296 ft 146 kts 335°
2026-05-08 00:39 35.95686 -75.63528 2148 ft 154 kts 334°
2026-05-08 00:39 35.96671 -75.64133 1925 ft 160 kts 335°
2026-05-08 00:39 35.98102 -75.64597 1585 ft 158 kts 351°
2026-05-08 00:40 35.98822 -75.64814 1366 ft 158 kts 341°
2026-05-08 00:40 35.99767 -75.65376 1326 ft 143 kts 333°
2026-05-08 00:40 36.00579 -75.65987 1351 ft 129 kts 330°
2026-05-08 00:40 36.01276 -75.66583 1446 ft 114 kts 321°
2026-05-08 00:41 36.01761 -75.67345 1434 ft 116 kts 301°
2026-05-08 00:41 36.01895 -75.68406 1231 ft 125 kts 282°
2026-05-08 00:41 36.01860 -75.69465 1159 ft 126 kts 251°
2026-05-08 00:41 36.01142 -75.70150 1047 ft 133 kts 206°
2026-05-08 00:42 36.00301 -75.70531 1109 ft 130 kts 198°
2026-05-08 00:42 35.99408 -75.70734 1249 ft 131 kts 170°
2026-05-08 00:42 35.98712 -75.70053 1066 ft 138 kts 110°
2026-05-08 00:42 35.98297 -75.68953 956 ft 140 kts 104°
2026-05-08 00:43 35.98389 -75.67994 1037 ft 105 kts 32°
2026-05-08 00:43 35.99108 -75.67822 757 ft 106 kts 359°
2026-05-08 00:43 35.99790 -75.67775 531 ft 90 kts 11°
2026-05-08 00:43 36.00543 -75.67553 295 ft 80 kts 13°
2026-05-08 00:44 36.00901 -75.67439 168 ft 78 kts 13°
2026-05-08 00:44 36.01398 -75.67278 19 ft 66 kts 13°
2026-05-08 00:44 36.01737 -75.67168 9 ft 16 kts 17°
2026-05-08 00:44 36.01762 -75.67161 9 ft 13 kts 192°
2026-05-08 00:45 36.01612 -75.67206 9 ft 31 kts 196°
2026-05-08 00:45 36.01470 -75.67217 9 ft 13 kts 103°
2026-05-08 00:45 36.01425 -75.67175 10 ft 6 kts 71°
2026-05-08 00:45 36.01438 -75.67161 10 ft 0 kts